STARLINK-1728, 46582

Orbit data source: Space-Track

STARLINK-1728, 46582 is a payload satellite owned by SpaceX/Seattle (US) in LEO that was launched on Tue, 06 Oct 2020 UTC via an FALCON 9 launch vehicle from the Air Force Eastern Test Range (AFETR). Payload-class satellites include a variety of spacecraft equipped with specific instruments for various scientific and technological missions. These include communications satellites like Starlink; space stations such as the ISS; scientific satellites like the Hubble; Earth observation satellites from companies like Planet Labs, Umbra, and HawkEye 360; GPS; miniature CubeSats for education and research; and military/defense satellites.

Loading next visibility...
Identifier
46582, 2020-070BC
Orbit
LEO
Country
Flag of USUS
Related business
Manufacturer
SpaceX/Seattle
Mission
Partially operational Commercial Communications
Bus & Motor
STARLINK, Unknown motor
Mass
260 kg wet, ~248 kg dry
Launch date (UTC)
2020-10-06 (5 years ago)
Launch vehicle
FALCON 9
Launch site
Air Force Eastern Test Range (AFETR)
Object type
Payload
Rocket body
Debris
Shape & HBR
Box + 1 Pan, 10.1 m
Radar Cross Section
13.562 m², Large (>1 m²)

Expand to show TLE details & history
Last TLE update: 7 hours ago

TLE from 7 hours ago
0 STARLINK-1728
1 46582U 20070BC  25308.57064073  .00014865  00000-0  53739-3 0  9998
2 46582  53.0516 356.5149 0001597  70.7871 289.3301 15.28677820280958
Epoch: 2025-11-04T13:41Z
TLE epoch observation values (Epoch: 2025-11-04T13:41:43.359Z)
Latitude
0.00005°
Longitude
107.02851°
Altitude
480.289 km
Speed
7.627 km/s
True Right ascension
23h 46m 03s
True Declination
0° 00' 00"
Sunlit
Object was in full shadow at epoch
Visualization orbit readout
Latitude
Unknown
Longitude
Unknown
Altitude
Unknown
Speed
Unknown
Apparent Right ascension
Unknown
Apparent Declination
Unknown
Sunlit
N/A
Visualization observer readout
Local Sidereal Time
16:26:36
Azimuth
Unknown
Elevation
Unknown
Doppler factor
Unknown
Orbital elements
Apogee altitude
481.133 km
Perigee altitude
478.942 km
Semi-major axis
6,858.175 km
Eccentricity
0.00016
Inclination
53.0516°
RAAN
356.5149°
Arg. of periapsis
70.7871°
True anomaly
289.31283°
Mean anomaly
289.3301°
Eccentric anomaly
289.32147°
Mean motion
3.82147 °/min
Orbital period
94.2 mins
BSTAR
0.00053739
Loading maneuver chart data...
Computing Atmospheric mass density...

Documentation

Showing up to 5 results
|